STARLINK-3888 (52454 NORAD) Tracking and Keplerian Element Data
This shows tracking and keplerian element data for the satellite.
Feedback or suggestion? Click here.
Element | Value |
Catalog | 52454 |
Name | STARLINK-3888 |
Epoch Orbit | 130 |
Epoch Day | 167.08334491 |
Epoch Year | 2022 |
RAAN | 68.0772 |
Inclination | 53.2175 |
Eccentricity | 0.0001625 |
Argument of Perigee | 41.0257 |
Mean Anonmoly | 12.9211 |
Mean Motion | 15.38311026 |
Decay Rate | -0.00699576 |
L1 | 1 52454U 22049D 22167.08334491 -.00699576 00000+0 -19714-1 0 9993 |
L2 | 2 52454 53.2175 68.0772 0001625 41.0257 12.9211 15.38311026 1308 |
Live tracking and technical data element details for STARLINK-3888 (NORAD 52454). STARLINK-3888 can be tracked NOW for your location showing map with azimuth and elevation plus other details from your city location.
Track the satellite on the map from your city or location and see movement details for azimuth, elevation, latitude, longitude, range, height, and movement on the map or in text.
IsCatalogInMostPopularTable: catalog: 52454, numindb: 1
Update: records affected: 1
GetName: 52454 STARLINK-3888
Hit Count: updated at: Mon, 27 Jun 2022 06:05:38 GMT